Home > Weather > Grudziądz > Past weeks

Flag for Poland Weather for the Past 2 Weeks in Grudziądz, Poland

Now
47 °F

Partly sunny.


Feels Like: 46 °F
Forecast: 43 / 47 °F
Wind: 3 mph from South

Location: Torun

Current Time: Feb 8, 2016 at 11:58:51 AM

Latest Report: Feb 8, 2016 at 11:00 AM


Visibility: 14 mi

Pressure: 29.65 "Hg

Humidity: 71%

Dew point: 38 °F

Location of GrudziądzLocation

Historic Weather in Grudziądz — Graph

°F

Grudziądz Temperature Yesterday

Maximum temperature yesterday: 49 °F (at 2:00 PM)
Minimum temperature yesterday: 35 °F (at 6:00 AM)
Average temperature yesterday: 42 °F

High & Low Weather Summary for the Past Weeks

 TemperatureHumidityPressure
High51 °F (Feb 2, 11:00 AM)100% (Jan 24, 10:00 PM)30.42 "Hg (Jan 24, 10:00 PM)
Low29 °F (Jan 24, 10:00 AM)50% (Feb 3, 1:00 PM)29.53 "Hg (Jan 30, 10:00 PM)
Average40 °F84%29.95 "Hg
* Reported Jan 24 10:00 AM — Feb 8 10:00 AM, Grudziądz, Weather by CustomWeather, © 2016

Note: Actual official high and low records may vary slightly from our data, if they occured in-between our weather recording intervals... More about our weather records

Advertising

Grudziądz Weather History for the Previous 24 Hours

 ConditionsComfort  
Time TempWeatherWind HumidityBarometerVisibility
10:00 AM
Mon, Feb 8
44 °FOvercast.5 mph82%29.68 "Hg12 mi
9:00 AM42 °FOvercast.3 mph89%29.71 "Hg7 mi
8:00 AM40 °FFog.5 mph92%29.72 "Hg6 mi
7:00 AM40 °FFog.5 mph93%29.72 "Hg5 mi
6:00 AM39 °FOvercast.2 mph94%29.73 "Hg3 mi
5:00 AM40 °FSprinkles. Overcast.3 mph93%29.72 "Hg4 mi
3:00 AM40 °FOvercast.5 mph83%29.73 "Hg7 mi
2:00 AM39 °FOvercast.3 mph87%29.71 "Hg6 mi
12:00 AM39 °FPassing clouds.3 mph85%29.71 "Hg7 mi
11:00 PM
Sun, Feb 7
39 °FClear.6 mph84%29.70 "Hg8 mi
10:00 PM40 °FPassing clouds.3 mph82%29.70 "Hg8 mi
9:00 PM41 °FPassing clouds.3 mph78%29.69 "Hg9 mi
8:00 PM43 °FPassing clouds.3 mph75%29.69 "Hg9 mi
7:00 PM44 °FPassing clouds.3 mph73%29.70 "Hg8 mi
6:00 PM44 °FPassing clouds.2 mph72%29.70 "Hg9 mi
5:00 PM45 °FPassing clouds.2 mph68%29.71 "Hg9 mi
4:00 PM48 °FOvercast.6 mph62%29.73 "Hg14 mi
3:00 PM48 °FPartly sunny.6 mph59%29.74 "Hg14 mi
2:00 PM49 °FScattered clouds.6 mph57%29.74 "Hg16 mi
1:00 PM49 °FScattered clouds.6 mph60%29.76 "Hg12 mi
12:00 PM47 °FPassing clouds.6 mph64%29.78 "Hg11 mi
11:00 AM45 °FPassing clouds.5 mph69%29.80 "Hg11 mi
Weather by CustomWeather, © 2016

See weather overviewHow to use our weather pages